This demonstration page uses our WeatherBlox Daily Observations layout. Learn more.

39.08367, -84.50855

Hourly Observations for June 14, 2019

Temp ( °F °C ) Dew Point ( °F °C ) Humidity (%) Winds ( mph kmh ) Pressure ( in mb ) Visibility ( mi km ) Precip ( " mm )
12:53 am 00:53 Clear 53 11.7 47 8.3 80 80 SW 5 7 30.09 1019 10 16.09344 0 0
1:53 am 01:53 Clear 49 9.4 47 8.3 93 93 SSW 5 7 30.09 1019 10 16.09344 0 0
2:53 am 02:53 Clear 49 9.4 46 7.8 90 90 Calm 30.09 1019 10 16.09344 0 0
3:53 am 03:53 Clear 48 8.9 46 7.8 93 93 VRB 5 7 30.09 1019 10 16.09344 0 0
4:53 am 04:53 Clear with Mist and Fog 46 7.8 45 7.2 96 96 SE 6 9 30.09 1019 3 4.828032 0 0
5:53 am 05:53 Clear 47 8.3 45 7.2 93 93 Calm 30.15 1021 9 14.484096 0 0
6:02 am 06:02 Clear with Mist and Fog 45 7.2 44 6.7 97 97 Calm 30.15 1021 0.75 1.207008 0 0
6:14 am 06:14 Sunny with Fog 46 7.8 45 7.2 96 96 Calm 30.15 1021 0.25 0.402336 0 0
6:20 am 06:20 Sunny with Mist and Fog 46 7.8 45 7.2 96 96 VRB 3 6 30.15 1021 1 1.609344 0 0
6:28 am 06:28 Sunny with Mist and Fog 46 7.8 44 6.7 93 93 VRB 6 9 30.15 1021 6 9.656064 0 0
6:53 am 06:53 Sunny 47 8.3 46 7.8 97 97 VRB 6 9 30.15 1021 10 16.09344 0 0
7:53 am 07:53 Sunny 53 11.7 50 10 89 89 Calm 30.18 1022 10 16.09344 0 0
8:53 am 08:53 Sunny 60 15.6 51 10.6 72 72 S 5 7 30.18 1022 10 16.09344 0 0
9:53 am 09:53 Sunny 66 18.9 49 9.4 54 54 SSW 8 13 30.18 1022 10 16.09344 0 0
10:53 am 10:53 Sunny 69 20.6 46 7.8 44 44 SW 10 17 30.18 1022 10 16.09344 0 0
11:53 am 11:53 Sunny 71 21.7 43 6.1 36 36 SSW 8 13 30.18 1022 10 16.09344 0 0
12:53 pm 12:53 Sunny 72 22.2 44 6.7 37 37 S 12 19 30.15 1021 10 16.09344 0 0
1:53 pm 13:53 Sunny 74 23.3 46 7.8 37 37 S 8 13 30.12 1020 10 16.09344 0 0
2:53 pm 14:53 Sunny 74 23.3 46 7.8 37 37 SW 10 17 30.09 1019 10 16.09344 0 0
3:53 pm 15:53 Sunny 75 23.9 48 8.9 39 39 S 8 13 30.06 1018 10 16.09344 0 0
4:53 pm 16:53 Sunny 76 24.4 47 8.3 36 36 S 16 26 30.06 1018 10 16.09344 0 0
5:53 pm 17:53 Sunny 73 22.8 47 8.3 40 40 S 15 24 30.03 1017 10 16.09344 0 0
6:53 pm 18:53 Sunny 72 22.2 48 8.9 43 43 SSW 12 19 30.03 1017 10 16.09344 0 0
7:53 pm 19:53 Sunny 69 20.6 51 10.6 53 53 S 7 11 30.03 1017 10 16.09344 0 0
8:53 pm 20:53 Sunny 66 18.9 52 11.1 61 61 S 3 6 30.03 1017 10 16.09344 0 0
9:53 pm 21:53 Clear 64 17.8 52 11.1 65 65 S 5 7 30.03 1017 10 16.09344 0 0
10:53 pm 22:53 Clear 63 17.2 52 11.1 68 68 SSW 5 7 30.03 1017 10 16.09344 0 0
11:53 pm 23:53 Clear 63 17.2 53 11.7 70 70 Calm 30.03 1017 10 16.09344 0 0

Powered by AerisWeather